,,PA_Meas_PMT16A,,PR_Meas_QMR101_102,,RH_Meas_QMH101,,SR_Meas_QMS101,,TA_Meas_QMH101,,GenWind,,GenWind,
time,status,PA,status,PR,status,RH,status,SR,status,TA,status,DirAvg,status,SpdAvg,
2014-11-12, 00:00:04,VALID,918.298,VALID,0,VALID,97.9685,VALID,0,VALID,19.4883,VALID,112,VALID,0,
2014-11-12, 00:01:04,VALID,918.294,VALID,0,VALID,97.9761,VALID,0,VALID,19.5093,VALID,112,VALID,0,
2014-11-12, 00:02:04,VALID,918.271,VALID,0,VALID,97.9761,VALID,0,VALID,19.5093,VALID,112,VALID,0,
2014-11-12, 00:03:04,VALID,918.249,VALID,0,VALID,97.9685,VALID,0,VALID,19.4898,VALID,112,VALID,0,
2014-11-12, 00:04:04,VALID,918.184,VALID,0,VALID,97.9914,VALID,0,VALID,19.5093,VALID,117,VALID,0,
2014-11-12, 00:05:04,VALID,918.196,VALID,0,VALID,97.9609,VALID,0,VALID,19.5093,VALID,125,VALID,0,
2014-11-12, 00:06:04,VALID,918.136,VALID,0,VALID,97.9838,VALID,0,VALID,19.4883,VALID,125,VALID,0,
2014-11-12, 00:07:04,VALID,918.111,VALID,0,VALID,97.9838,VALID,0,VALID,19.5093,VALID,125,VALID,0,
2014-11-12, 00:08:04,VALID,918.073,VALID,0,VALID,97.9685,VALID,0,VALID,19.4883,VALID,122,VALID,0.382422,
2014-11-12, 00:09:04,VALID,918.052,VALID,0,VALID,97.9761,VALID,0,VALID,19.4703,VALID,121,VALID,0.703125,
2014-11-12, 00:10:04,VALID,918.024,VALID,0,VALID,97.9761,VALID,0,VALID,19.4493,VALID,121,VALID,1.15781,
2014-11-12, 00:11:04,VALID,918.01,VALID,0,VALID,97.9761,VALID,0,VALID,19.4493,VALID,124,VALID,1.26992,
2014-11-12, 00:12:04,VALID,917.969,VALID,0,VALID,97.9838,VALID,0,VALID,19.4703,VALID,121,VALID,0.829297,
2014-11-12, 00:13:04,VALID,917.941,VALID,0,VALID,97.9761,VALID,0,VALID,19.4508,VALID,119,VALID,0.916406,
2014-11-12, 00:14:04,VALID,917.966,VALID,0,VALID,97.9914,VALID,0,VALID,19.4703,VALID,116,VALID,1.21055,
2014-11-12, 00:15:04,VALID,917.912,VALID,0,VALID,97.9838,VALID,0,VALID,19.4703,VALID,124,VALID,0.78125,
2014-11-12, 00:16:04,VALID,917.927,VALID,0,VALID,97.9838,VALID,0,VALID,19.4298,VALID,123,VALID,0.688672,
2014-11-12, 00:17:04,VALID,917.889,VALID,0,VALID,97.9838,VALID,0,VALID,19.4508,VALID,124,VALID,0.695703,
2014-11-12, 00:18:04,VALID,917.893,VALID,0,VALID,97.999,VALID,0,VALID,19.4313,VALID,123,VALID,0.633203,
2014-11-12, 00:19:04,VALID,917.884,VALID,0,VALID,98.0143,VALID,0,VALID,19.3923,VALID,115,VALID,0.757813,
2014-11-12, 00:20:04,VALID,917.887,VALID,0,VALID,97.9914,VALID,0,VALID,19.4118,VALID,122,VALID,0.657422,
2014-11-12, 00:21:04,VALID,917.889,VALID,0,VALID,97.9838,VALID,0,VALID,19.3923,VALID,107,VALID,0.482031,
2014-11-12, 00:22:04,VALID,917.877,VALID,0,VALID,98.0143,VALID,0,VALID,19.3728,VALID,115,VALID,0.697656,
2014-11-12, 00:23:04,VALID,917.895,VALID,0,VALID,97.9914,VALID,0,VALID,19.3533,VALID,122,VALID,0.80625,
2014-11-12, 00:24:04,VALID,917.933,VALID,0,VALID,97.9838,VALID,0,VALID,19.3533,VALID,127,VALID,1.24219,
2014-11-12, 00:25:04,VALID,917.931,VALID,0,VALID,97.999,VALID,0,VALID,19.3533,VALID,130,VALID,0.499219,
2014-11-12, 00:26:04,VALID,917.986,VALID,0,VALID,97.999,VALID,0,VALID,19.3323,VALID,120,VALID,1.19609,
2014-11-12, 00:27:04,VALID,917.977,VALID,0,VALID,97.9914,VALID,0,VALID,19.3533,VALID,103,VALID,0.854297,
2014-11-12, 00:28:04,VALID,917.961,VALID,0,VALID,97.999,VALID,0,VALID,19.3533,VALID,110,VALID,0.8875,
2014-11-12, 00:29:04,VALID,917.99,VALID,0,VALID,97.999,VALID,0,VALID,19.3533,VALID,126,VALID,0.969141,
2014-11-12, 00:30:04,VALID,917.95,VALID,0,VALID,97.999,VALID,0,VALID,19.3338,VALID,131,VALID,1.08164,
2014-11-12, 00:31:04,VALID,917.962,VALID,0,VALID,97.999,VALID,0,VALID,19.3323,VALID,133,VALID,0.723437,
2014-11-12, 00:32:04,VALID,917.952,VALID,0,VALID,97.9914,VALID,0,VALID,19.3338,VALID,134,VALID,0.328906,
2014-11-12, 00:33:04,VALID,917.963,VALID,0,VALID,98.0066,VALID,0,VALID,19.3338,VALID,133,VALID,1.12031,
2014-11-12, 00:34:04,VALID,917.956,VALID,0,VALID,97.9914,VALID,0,VALID,19.3128,VALID,130,VALID,0.861719,
2014-11-12, 00:35:04,VALID,917.967,VALID,0,VALID,98.0219,VALID,0,VALID,19.3338,VALID,126,VALID,0.807813,
2014-11-12, 00:36:04,VALID,917.933,VALID,0,VALID,97.999,VALID,0,VALID,19.3128,VALID,111,VALID,1.08242,
2014-11-12, 00:37:04,VALID,917.972,VALID,0,VALID,97.999,VALID,0,VALID,19.3338,VALID,99,VALID,0.2375,
2014-11-12, 00:38:04,VALID,917.953,VALID,0,VALID,97.999,VALID,0,VALID,19.3338,VALID,104,VALID,0.0015625,
2014-11-12, 00:39:04,VALID,917.958,VALID,0,VALID,97.9914,VALID,0,VALID,19.3128,VALID,101,VALID,0.820703,
2014-11-12, 00:40:04,VALID,917.963,VALID,0,VALID,97.9838,VALID,0,VALID,19.3338,VALID,114,VALID,0.884375,
2014-11-12, 00:41:04,VALID,917.965,VALID,0,VALID,98.0066,VALID,0,VALID,19.3128,VALID,112,VALID,0.133203,
2014-11-12, 00:42:04,VALID,917.968,VALID,0,VALID,97.9914,VALID,0,VALID,19.3128,VALID,116,VALID,0.000390625,
2014-11-12, 00:43:04,VALID,917.917,VALID,0,VALID,98.0143,VALID,0,VALID,19.3338,VALID,116,VALID,0,
2014-11-12, 00:44:04,VALID,917.918,VALID,0,VALID,98.0066,VALID,0,VALID,19.3338,VALID,135,VALID,0.612109,
2014-11-12, 00:45:04,VALID,917.924,VALID,0,VALID,98.0066,VALID,0,VALID,19.3338,VALID,134,VALID,0.0914062,
2014-11-12, 00:46:04,VALID,917.912,VALID,0,VALID,97.999,VALID,0,VALID,19.3338,VALID,135,VALID,0,
2014-11-12, 00:47:04,VALID,917.902,VALID,0,VALID,98.0066,VALID,0,VALID,19.3338,VALID,131,VALID,0,
2014-11-12, 00:48:04,VALID,917.929,VALID,0,VALID,98.0066,VALID,0,VALID,19.3547,VALID,121,VALID,0.398828,
2014-11-12, 00:49:04,VALID,917.92,VALID,0,VALID,97.999,VALID,0,VALID,19.3547,VALID,120,VALID,0.805078,
2014-11-12, 00:50:04,VALID,917.921,VALID,0,VALID,98.0219,VALID,0,VALID,19.3533,VALID,138,VALID,0.986719,
2014-11-12, 00:51:04,VALID,917.877,VALID,0,VALID,97.999,VALID,0,VALID,19.3533,VALID,138,VALID,0.517187,
2014-11-12, 00:52:04,VALID,917.875,VALID,0,VALID,98.0143,VALID,0,VALID,19.3533,VALID,138,VALID,0.543359,
2014-11-12, 00:53:04,VALID,917.876,VALID,0,VALID,97.9914,VALID,0,VALID,19.3728,VALID,138,VALID,0,
2014-11-12, 00:54:04,VALID,917.87,VALID,0,VALID,97.9914,VALID,0,VALID,19.3728,VALID,138,VALID,0,
2014-11-12, 00:55:04,VALID,917.857,VALID,0,VALID,97.9838,VALID,0,VALID,19.3728,VALID,138,VALID,0,
2014-11-12, 00:56:04,VALID,917.861,VALID,0,VALID,98.0066,VALID,0,VALID,19.3518,VALID,129,VALID,0,
2014-11-12, 00:57:04,VALID,917.868,VALID,0,VALID,98.0066,VALID,0,VALID,19.3728,VALID,125,VALID,0,
2014-11-12, 00:58:04,VALID,917.868,VALID,0,VALID,98.0143,VALID,0,VALID,19.3533,VALID,107,VALID,0.819141,
2014-11-12, 00:59:04,VALID,917.809,VALID,0,VALID,98.0143,VALID,0,VALID,19.3533,VALID,117,VALID,0.630078,
2014-11-12, 01:00:04,VALID,917.838,VALID,0,VALID,98.0219,VALID,0,VALID,19.3338,VALID,132,VALID,0.681641,
2014-11-12, 01:01:04,VALID,917.836,VALID,0,VALID,98.0219,VALID,0,VALID,19.3338,VALID,141,VALID,1.05469,
2014-11-12, 01:02:04,VALID,917.848,VALID,0,VALID,98.0143,VALID,0,VALID,19.3533,VALID,139,VALID,1.09844,
2014-11-12, 01:03:04,VALID,917.806,VALID,0,VALID,97.9914,VALID,0,VALID,19.3533,VALID,140,VALID,1.09687,
2014-11-12, 01:04:04,VALID,917.833,VALID,0,VALID,98.0066,VALID,0,VALID,19.3728,VALID,131,VALID,1.00195,
2014-11-12, 01:05:04,VALID,917.828,VALID,0,VALID,97.999,VALID,0,VALID,19.3533,VALID,132,VALID,1.18281,
2014-11-12, 01:06:04,VALID,917.79,VALID,0,VALID,98.0143,VALID,0,VALID,19.3533,VALID,130,VALID,1.17539,
2014-11-12, 01:07:04,VALID,917.785,VALID,0,VALID,98.0219,VALID,0,VALID,19.3533,VALID,142,VALID,0.558594,
2014-11-12, 01:08:04,VALID,917.758,VALID,0,VALID,98.0143,VALID,0,VALID,19.3728,VALID,126,VALID,0.863672,
2014-11-12, 01:09:04,VALID,917.76,VALID,0,VALID,98.0143,VALID,0,VALID,19.3728,VALID,137,VALID,0.685547,
2014-11-12, 01:10:04,VALID,917.751,VALID,0,VALID,98.0143,VALID,0,VALID,19.3728,VALID,118,VALID,0.826563,
2014-11-12, 01:11:04,VALID,917.728,VALID,0,VALID,97.9838,VALID,0,VALID,19.3728,VALID,125,VALID,0.872656,
2014-11-12, 01:12:04,VALID,917.725,VALID,0,VALID,98.0066,VALID,0,VALID,19.3728,VALID,138,VALID,1.28906,
2014-11-12, 01:13:04,VALID,917.768,VALID,0,VALID,97.9838,VALID,0,VALID,19.3923,VALID,124,VALID,0.788281,
2014-11-12, 01:14:04,VALID,917.733,VALID,0,VALID,97.999,VALID,0,VALID,19.3923,VALID,130,VALID,0.909375,
2014-11-12, 01:15:04,VALID,917.731,VALID,0,VALID,97.9761,VALID,0,VALID,19.4118,VALID,139,VALID,0.658984,
2014-11-12, 01:16:04,VALID,917.744,VALID,0,VALID,97.9838,VALID,0,VALID,19.4118,VALID,138,VALID,0.646094,
2014-11-12, 01:17:04,VALID,917.729,VALID,0,VALID,97.9838,VALID,0,VALID,19.4313,VALID,139,VALID,0.640234,
2014-11-12, 01:18:04,VALID,917.746,VALID,0,VALID,97.9914,VALID,0,VALID,19.4508,VALID,139,VALID,0.865234,
2014-11-12, 01:19:04,VALID,917.75,VALID,0,VALID,98.0143,VALID,0,VALID,19.4508,VALID,142,VALID,0.678125,
2014-11-12, 01:20:04,VALID,917.734,VALID,0,VALID,97.9761,VALID,0,VALID,19.4703,VALID,142,VALID,0.925391,
2014-11-12, 01:21:04,VALID,917.77,VALID,0,VALID,97.999,VALID,0,VALID,19.4898,VALID,146,VALID,0.773047,
2014-11-12, 01:22:04,VALID,917.746,VALID,0,VALID,97.9761,VALID,0,VALID,19.4703,VALID,146,VALID,0.739062,
2014-11-12, 01:23:04,VALID,917.744,VALID,0.2,VALID,97.9609,VALID,0,VALID,19.4898,VALID,146,VALID,0.913281,
2014-11-12, 01:24:04,VALID,917.75,VALID,0,VALID,97.9685,VALID,0,VALID,19.5093,VALID,146,VALID,0.825781,
2014-11-12, 01:25:04,VALID,917.75,VALID,0,VALID,97.9838,VALID,0,VALID,19.5288,VALID,146,VALID,0.580469,
2014-11-12, 01:26:04,VALID,917.724,VALID,0,VALID,97.9609,VALID,0,VALID,19.5483,VALID,146,VALID,0.695313,
2014-11-12, 01:27:04,VALID,917.731,VALID,0,VALID,97.9761,VALID,0,VALID,19.5678,VALID,144,VALID,0.713672,
2014-11-12, 01:28:04,VALID,917.706,VALID,0,VALID,97.9685,VALID,0,VALID,19.5873,VALID,147,VALID,1.1625,
2014-11-12, 01:29:04,VALID,917.693,VALID,0,VALID,97.938,VALID,0,VALID,19.5873,VALID,142,VALID,0.861328,
2014-11-12, 01:30:04,VALID,917.721,VALID,0,VALID,97.9533,VALID,0,VALID,19.6068,VALID,142,VALID,0.781641,
2014-11-12, 01:31:04,VALID,917.716,VALID,0,VALID,97.9685,VALID,0,VALID,19.6068,VALID,142,VALID,1.13125,
2014-11-12, 01:32:04,VALID,917.679,VALID,0,VALID,97.9685,VALID,0,VALID,19.6278,VALID,126,VALID,0.899609,
2014-11-12, 01:33:04,VALID,917.699,VALID,0,VALID,97.9304,VALID,0,VALID,19.6053,VALID,134,VALID,0.913281,
2014-11-12, 01:34:04,VALID,917.683,VALID,0,VALID,97.9609,VALID,0,VALID,19.6248,VALID,121,VALID,1.275,
2014-11-12, 01:35:04,VALID,917.656,VALID,0,VALID,97.9533,VALID,0,VALID,19.6458,VALID,127,VALID,1.03203,
2014-11-12, 01:36:04,VALID,917.67,VALID,0,VALID,97.9609,VALID,0,VALID,19.6848,VALID,111,VALID,0.937891,
2014-11-12, 01:37:04,VALID,917.68,VALID,0,VALID,97.9533,VALID,0,VALID,19.6653,VALID,124,VALID,1.37383,
2014-11-12, 01:38:04,VALID,917.665,VALID,0,VALID,97.9533,VALID,0,VALID,19.6848,VALID,121,VALID,1.07031,
2014-11-12, 01:39:04,VALID,917.628,VALID,0,VALID,97.9685,VALID,0,VALID,19.6848,VALID,126,VALID,1.17344,
2014-11-12, 01:40:04,VALID,917.621,VALID,0,VALID,97.9533,VALID,0,VALID,19.6848,VALID,128,VALID,1.34375,
2014-11-12, 01:41:04,VALID,917.61,VALID,0,VALID,97.9609,VALID,0,VALID,19.6848,VALID,122,VALID,1.71172,
2014-11-12, 01:42:04,VALID,917.584,VALID,0,VALID,97.9533,VALID,0,VALID,19.6848,VALID,118,VALID,1.62656,
2014-11-12, 01:43:04,VALID,917.607,VALID,0,VALID,97.9761,VALID,0,VALID,19.6848,VALID,111,VALID,1.18789,
2014-11-12, 01:44:04,VALID,917.582,VALID,0,VALID,97.9761,VALID,0,VALID,19.7058,VALID,105,VALID,1.64063,
2014-11-12, 01:45:04,VALID,917.595,VALID,0,VALID,97.9609,VALID,0,VALID,19.6848,VALID,107,VALID,1.47344,
2014-11-12, 01:46:04,VALID,917.565,VALID,0,VALID,97.9609,VALID,0,VALID,19.6848,VALID,91,VALID,0.802734,
2014-11-12, 01:47:04,VALID,917.546,VALID,0,VALID,97.9533,VALID,0,VALID,19.6848,VALID,84,VALID,1.22617,
2014-11-12, 01:48:04,VALID,917.572,VALID,0,VALID,97.9761,VALID,0,VALID,19.6848,VALID,101,VALID,1.51094,
2014-11-12, 01:49:04,VALID,917.569,VALID,0,VALID,97.9533,VALID,0,VALID,19.6653,VALID,111,VALID,1.10625,
2014-11-12, 01:50:04,VALID,917.597,VALID,0,VALID,97.9533,VALID,0,VALID,19.6848,VALID,86,VALID,0.90625,
2014-11-12, 01:51:04,VALID,917.575,VALID,0,VALID,97.9533,VALID,0,VALID,19.6848,VALID,101,VALID,1.05391,
2014-11-12, 01:52:04,VALID,917.562,VALID,0,VALID,97.9685,VALID,0,VALID,19.6848,VALID,100,VALID,1.32187,
2014-11-12, 01:53:04,VALID,917.573,VALID,0,VALID,97.9838,VALID,0,VALID,19.6848,VALID,113,VALID,1.29336,
2014-11-12, 01:54:04,VALID,917.544,VALID,0,VALID,97.9533,VALID,0,VALID,19.6833,VALID,105,VALID,1.33359,
2014-11-12, 01:55:04,VALID,917.558,VALID,0,VALID,97.9533,VALID,0,VALID,19.6833,VALID,112,VALID,1.47656,
2014-11-12, 01:56:04,VALID,917.568,VALID,0,VALID,97.9609,VALID,0,VALID,19.7238,VALID,130,VALID,0.942969,
2014-11-12, 01:57:04,VALID,917.564,VALID,0,VALID,97.9609,VALID,0,VALID,19.7043,VALID,116,VALID,0.36875,
2014-11-12, 01:58:04,VALID,917.538,VALID,0,VALID,97.9533,VALID,0,VALID,19.7028,VALID,120,VALID,0.819531,
2014-11-12, 01:59:04,VALID,917.563,VALID,0,VALID,97.9685,VALID,0,VALID,19.6833,VALID,89,VALID,0.4875,
2014-11-12, 02:00:04,VALID,917.529,VALID,0,VALID,97.9761,VALID,0,VALID,19.7238,VALID,88,VALID,0.726563,
2014-11-12, 02:01:04,VALID,917.532,VALID,0,VALID,97.9685,VALID,0,VALID,19.7238,VALID,93,VALID,1.10742,
2014-11-12, 02:02:04,VALID,917.507,VALID,0,VALID,97.9533,VALID,0,VALID,19.7238,VALID,95,VALID,0.99375,
2014-11-12, 02:03:04,VALID,917.521,VALID,0,VALID,97.9761,VALID,0,VALID,19.7433,VALID,120,VALID,1.1543,
2014-11-12, 02:04:04,VALID,917.474,VALID,0,VALID,97.9533,VALID,0,VALID,19.7238,VALID,137,VALID,1.15,
2014-11-12, 02:05:04,VALID,917.486,VALID,0,VALID,97.938,VALID,0,VALID,19.7433,VALID,124,VALID,0.989844,
2014-11-12, 02:06:04,VALID,917.498,VALID,0,VALID,97.938,VALID,0,VALID,19.7433,VALID,136,VALID,0.930859,
2014-11-12, 02:07:04,VALID,917.472,VALID,0,VALID,97.9456,VALID,0,VALID,19.7628,VALID,117,VALID,0.416016,
2014-11-12, 02:08:04,VALID,917.484,VALID,0,VALID,97.9456,VALID,0,VALID,19.7823,VALID,117,VALID,0.821875,
2014-11-12, 02:09:04,VALID,917.477,VALID,0,VALID,97.9456,VALID,0,VALID,19.7823,VALID,116,VALID,0.590234,
2014-11-12, 02:10:04,VALID,917.502,VALID,0,VALID,97.9456,VALID,0,VALID,19.7628,VALID,116,VALID,0.497656,
2014-11-12, 02:11:04,VALID,917.473,VALID,0,VALID,97.938,VALID,0,VALID,19.7433,VALID,117,VALID,0.624219,
2014-11-12, 02:12:04,VALID,917.481,VALID,0,VALID,97.9304,VALID,0,VALID,19.7433,VALID,120,VALID,0.812891,
2014-11-12, 02:13:04,VALID,917.474,VALID,0,VALID,97.938,VALID,0,VALID,19.7433,VALID,122,VALID,0.524609,
2014-11-12, 02:14:04,VALID,917.463,VALID,0,VALID,97.9533,VALID,0,VALID,19.7433,VALID,121,VALID,0.36875,
2014-11-12, 02:15:04,VALID,917.458,VALID,0,VALID,97.9533,VALID,0,VALID,19.7628,VALID,122,VALID,0.357812,
2014-11-12, 02:16:04,VALID,917.429,VALID,0,VALID,97.9456,VALID,0,VALID,19.7433,VALID,122,VALID,0,
2014-11-12, 02:17:04,VALID,917.432,VALID,0,VALID,97.9456,VALID,0,VALID,19.7433,VALID,110,VALID,0,
2014-11-12, 02:18:04,VALID,917.429,VALID,0,VALID,97.9533,VALID,0,VALID,19.7433,VALID,110,VALID,0,
2014-11-12, 02:19:04,VALID,917.424,VALID,0,VALID,97.938,VALID,0,VALID,19.7223,VALID,110,VALID,0,
2014-11-12, 02:20:04,VALID,917.381,VALID,0,VALID,97.9304,VALID,0,VALID,19.7223,VALID,110,VALID,0,
2014-11-12, 02:21:04,VALID,917.367,VALID,0,VALID,97.938,VALID,0,VALID,19.7433,VALID,110,VALID,0,
2014-11-12, 02:22:04,VALID,917.367,VALID,0,VALID,97.9456,VALID,0,VALID,19.7433,VALID,110,VALID,0,
2014-11-12, 02:23:04,VALID,917.342,VALID,0,VALID,97.9609,VALID,0,VALID,19.7238,VALID,110,VALID,0,
2014-11-12, 02:24:04,VALID,917.326,VALID,0,VALID,97.9533,VALID,0,VALID,19.7238,VALID,110,VALID,0,
2014-11-12, 02:25:04,VALID,917.286,VALID,0,VALID,97.938,VALID,0,VALID,19.7238,VALID,110,VALID,0,
2014-11-12, 02:26:04,VALID,917.285,VALID,0,VALID,97.9304,VALID,0,VALID,19.7433,VALID,110,VALID,0,
2014-11-12, 02:27:04,VALID,917.262,VALID,0,VALID,97.9228,VALID,0,VALID,19.7223,VALID,110,VALID,0,
2014-11-12, 02:28:04,VALID,917.222,VALID,0,VALID,97.9228,VALID,0,VALID,19.7433,VALID,110,VALID,0,
2014-11-12, 02:29:04,VALID,917.183,VALID,0,VALID,97.9228,VALID,0,VALID,19.7223,VALID,110,VALID,0,
2014-11-12, 02:30:04,VALID,917.192,VALID,0,VALID,97.9152,VALID,0,VALID,19.7613,VALID,110,VALID,0,
2014-11-12, 02:31:04,VALID,917.157,VALID,0,VALID,97.938,VALID,0,VALID,19.7418,VALID,110,VALID,0,
2014-11-12, 02:32:04,VALID,917.154,VALID,0,VALID,97.9304,VALID,0,VALID,19.7433,VALID,110,VALID,0,
2014-11-12, 02:33:04,VALID,917.118,VALID,0,VALID,97.9075,VALID,0,VALID,19.7028,VALID,110,VALID,0,
2014-11-12, 02:34:04,VALID,917.147,VALID,0,VALID,97.938,VALID,0,VALID,19.7028,VALID,110,VALID,0,
2014-11-12, 02:35:04,VALID,917.106,VALID,0,VALID,97.9304,VALID,0,VALID,19.7028,VALID,110,VALID,0,
2014-11-12, 02:36:04,VALID,917.091,VALID,0,VALID,97.9304,VALID,0,VALID,19.7238,VALID,110,VALID,0,
2014-11-12, 02:37:04,VALID,917.107,VALID,0,VALID,97.938,VALID,0,VALID,19.7028,VALID,110,VALID,0,
2014-11-12, 02:38:04,VALID,917.072,VALID,0,VALID,97.9152,VALID,0,VALID,19.7028,VALID,111,VALID,0,
2014-11-12, 02:39:04,VALID,917.107,VALID,0,VALID,97.9456,VALID,0,VALID,19.7238,VALID,111,VALID,0,
2014-11-12, 02:40:04,VALID,917.039,VALID,0,VALID,97.9228,VALID,0,VALID,19.7043,VALID,113,VALID,0,
2014-11-12, 02:41:04,VALID,917.051,VALID,0,VALID,97.938,VALID,0,VALID,19.7238,VALID,121,VALID,0,
2014-11-12, 02:42:04,VALID,917.039,VALID,0,VALID,97.9304,VALID,0,VALID,19.7238,VALID,124,VALID,0,
2014-11-12, 02:43:04,VALID,917.033,VALID,0,VALID,97.938,VALID,0,VALID,19.7238,VALID,124,VALID,0,
2014-11-12, 02:44:04,VALID,917.023,VALID,0,VALID,97.938,VALID,0,VALID,19.7028,VALID,125,VALID,0,
2014-11-12, 02:45:04,VALID,917.03,VALID,0,VALID,97.9152,VALID,0,VALID,19.7043,VALID,129,VALID,0,
2014-11-12, 02:46:04,VALID,917.022,VALID,0,VALID,97.9456,VALID,0,VALID,19.7238,VALID,129,VALID,0,
2014-11-12, 02:47:04,VALID,917.003,VALID,0,VALID,97.9304,VALID,0,VALID,19.7028,VALID,129,VALID,0,
2014-11-12, 02:48:04,VALID,916.987,VALID,0,VALID,97.9228,VALID,0,VALID,19.7043,VALID,129,VALID,0,
2014-11-12, 02:49:04,VALID,916.95,VALID,0,VALID,97.9228,VALID,0,VALID,19.7043,VALID,129,VALID,0,
2014-11-12, 02:50:04,VALID,916.942,VALID,0,VALID,97.9304,VALID,0,VALID,19.7043,VALID,129,VALID,0,
2014-11-12, 02:51:04,VALID,916.946,VALID,0,VALID,97.9228,VALID,0,VALID,19.7043,VALID,129,VALID,0,
2014-11-12, 02:52:04,VALID,916.91,VALID,0,VALID,97.9228,VALID,0,VALID,19.7043,VALID,129,VALID,0,
2014-11-12, 02:53:04,VALID,916.911,VALID,0,VALID,97.9304,VALID,0,VALID,19.7043,VALID,129,VALID,0,
2014-11-12, 02:54:04,VALID,916.891,VALID,0,VALID,97.9228,VALID,0,VALID,19.6848,VALID,129,VALID,0,
2014-11-12, 02:55:04,VALID,916.864,VALID,0,VALID,97.938,VALID,0,VALID,19.6638,VALID,129,VALID,0,
2014-11-12, 02:56:04,VALID,916.857,VALID,0,VALID,97.938,VALID,0,VALID,19.6848,VALID,129,VALID,0,
2014-11-12, 02:57:04,VALID,916.856,VALID,0,VALID,97.9304,VALID,0,VALID,19.6848,VALID,108,VALID,0,
2014-11-12, 02:58:04,VALID,916.824,VALID,0,VALID,97.938,VALID,0,VALID,19.6848,VALID,108,VALID,0,
2014-11-12, 02:59:04,VALID,916.859,VALID,0,VALID,97.9152,VALID,0,VALID,19.6848,VALID,108,VALID,0,
2014-11-12, 03:00:04,VALID,916.832,VALID,0,VALID,97.9304,VALID,0,VALID,19.6848,VALID,108,VALID,0,
2014-11-12, 03:01:04,VALID,916.82,VALID,0,VALID,97.938,VALID,0,VALID,19.6848,VALID,108,VALID,0,
2014-11-12, 03:02:04,VALID,916.795,VALID,0,VALID,97.9228,VALID,0,VALID,19.6653,VALID,108,VALID,0,
2014-11-12, 03:03:04,VALID,916.811,VALID,0,VALID,97.938,VALID,0,VALID,19.6653,VALID,108,VALID,0,
2014-11-12, 03:04:04,VALID,916.786,VALID,0,VALID,97.9228,VALID,0,VALID,19.6443,VALID,109,VALID,0,
2014-11-12, 03:05:04,VALID,916.797,VALID,0,VALID,97.9304,VALID,0,VALID,19.6653,VALID,114,VALID,0,
2014-11-12, 03:06:04,VALID,916.795,VALID,0,VALID,97.9304,VALID,0,VALID,19.6638,VALID,115,VALID,0,
2014-11-12, 03:07:04,VALID,916.771,VALID,0,VALID,97.9152,VALID,0,VALID,19.6848,VALID,115,VALID,0,
2014-11-12, 03:08:04,VALID,916.748,VALID,0,VALID,97.9228,VALID,0,VALID,19.6653,VALID,115,VALID,0,
2014-11-12, 03:09:04,VALID,916.735,VALID,0,VALID,97.9152,VALID,0,VALID,19.7043,VALID,115,VALID,0,
2014-11-12, 03:10:04,VALID,916.709,VALID,0,VALID,97.9075,VALID,0,VALID,19.7043,VALID,115,VALID,0,
2014-11-12, 03:11:04,VALID,916.688,VALID,0,VALID,97.9075,VALID,0,VALID,19.7238,VALID,152,VALID,0,
2014-11-12, 03:12:04,VALID,916.693,VALID,0,VALID,97.9228,VALID,0,VALID,19.6848,VALID,152,VALID,0,
2014-11-12, 03:13:04,VALID,916.676,VALID,0,VALID,97.9152,VALID,0,VALID,19.6848,VALID,152,VALID,0,
2014-11-12, 03:14:04,VALID,916.667,VALID,0,VALID,97.9075,VALID,0,VALID,19.6848,VALID,152,VALID,0,
2014-11-12, 03:15:04,VALID,916.679,VALID,0,VALID,97.8999,VALID,0,VALID,19.6848,VALID,152,VALID,0,
2014-11-12, 03:16:04,VALID,916.663,VALID,0,VALID,97.9075,VALID,0,VALID,19.6848,VALID,152,VALID,0.519141,
2014-11-12, 03:17:04,VALID,916.657,VALID,0,VALID,97.9228,VALID,0,VALID,19.6848,VALID,152,VALID,0.626562,
2014-11-12, 03:18:04,VALID,916.667,VALID,0,VALID,97.9075,VALID,0,VALID,19.7043,VALID,152,VALID,0.838281,
2014-11-12, 03:19:04,VALID,916.659,VALID,0,VALID,97.9228,VALID,0,VALID,19.7043,VALID,152,VALID,1.19687,
2014-11-12, 03:20:04,VALID,916.646,VALID,0,VALID,97.8847,VALID,0,VALID,19.7043,VALID,165,VALID,0.906641,
2014-11-12, 03:21:04,VALID,916.646,VALID,0,VALID,97.9075,VALID,0,VALID,19.7043,VALID,162,VALID,0.804688,
2014-11-12, 03:22:04,VALID,916.636,VALID,0,VALID,97.9152,VALID,0,VALID,19.7043,VALID,152,VALID,0.883203,
2014-11-12, 03:23:04,VALID,916.637,VALID,0,VALID,97.8923,VALID,0,VALID,19.7238,VALID,158,VALID,0.655859,
2014-11-12, 03:24:04,VALID,916.623,VALID,0,VALID,97.8999,VALID,0,VALID,19.7238,VALID,163,VALID,0.677734,
2014-11-12, 03:25:04,VALID,916.668,VALID,0,VALID,97.8923,VALID,0,VALID,19.7238,VALID,124,VALID,0.926172,
2014-11-12, 03:26:04,VALID,916.672,VALID,0,VALID,97.8999,VALID,0,VALID,19.7238,VALID,166,VALID,1.04102,
2014-11-12, 03:27:04,VALID,916.671,VALID,0,VALID,97.8999,VALID,0,VALID,19.7433,VALID,150,VALID,1.07187,
2014-11-12, 03:28:04,VALID,916.641,VALID,0,VALID,97.8999,VALID,0,VALID,19.7433,VALID,156,VALID,2.05234,
2014-11-12, 03:29:04,VALID,916.661,VALID,0,VALID,97.9075,VALID,0,VALID,19.7433,VALID,145,VALID,1.87461,
2014-11-12, 03:30:04,VALID,916.707,VALID,0,VALID,97.8847,VALID,0,VALID,19.7628,VALID,122,VALID,1.89609,
2014-11-12, 03:31:04,VALID,916.735,VALID,0,VALID,97.8999,VALID,0,VALID,19.7823,VALID,135,VALID,2.21055,
2014-11-12, 03:32:04,VALID,916.731,VALID,0,VALID,97.8999,VALID,0,VALID,19.8018,VALID,119,VALID,1.77969,
2014-11-12, 03:33:04,VALID,916.74,VALID,0,VALID,97.8694,VALID,0,VALID,19.8408,VALID,105,VALID,3.6668,
2014-11-12, 03:34:04,VALID,916.717,VALID,0,VALID,97.877,VALID,0,VALID,19.8993,VALID,123,VALID,2.85781,
2014-11-12, 03:35:04,VALID,916.768,VALID,0,VALID,97.8694,VALID,0,VALID,19.9593,VALID,110,VALID,1.69805,
2014-11-12, 03:36:04,VALID,916.738,VALID,0,VALID,97.8618,VALID,0,VALID,19.9578,VALID,113,VALID,1.97266,
2014-11-12, 03:37:04,VALID,916.76,VALID,0,VALID,97.8237,VALID,0.107441,VALID,19.9563,VALID,113,VALID,1.13203,
2014-11-12, 03:38:04,VALID,916.74,VALID,0,VALID,97.8465,VALID,0.107441,VALID,19.9563,VALID,123,VALID,1.01367,
2014-11-12, 03:39:04,VALID,916.745,VALID,0,VALID,97.8313,VALID,0,VALID,19.9563,VALID,126,VALID,0.798437,
2014-11-12, 03:40:04,VALID,916.76,VALID,0,VALID,97.8237,VALID,0,VALID,19.9173,VALID,149,VALID,1.84375,
2014-11-12, 03:41:04,VALID,916.782,VALID,0,VALID,97.8313,VALID,0.107441,VALID,19.9368,VALID,129,VALID,0.983984,
2014-11-12, 03:42:04,VALID,916.78,VALID,0,VALID,97.8389,VALID,0,VALID,19.9368,VALID,143,VALID,0.761328,
2014-11-12, 03:43:04,VALID,916.787,VALID,0,VALID,97.8008,VALID,0.107441,VALID,19.9173,VALID,152,VALID,1.74258,
2014-11-12, 03:44:04,VALID,916.778,VALID,0,VALID,97.7856,VALID,0.107441,VALID,19.9368,VALID,121,VALID,0.582031,
2014-11-12, 03:45:04,VALID,916.773,VALID,0,VALID,97.8008,VALID,0.107441,VALID,19.9158,VALID,124,VALID,0.464063,
2014-11-12, 03:46:04,VALID,916.791,VALID,0,VALID,97.7779,VALID,0,VALID,19.9173,VALID,181,VALID,1.53047,
2014-11-12, 03:47:04,VALID,916.758,VALID,0,VALID,97.7779,VALID,0,VALID,19.8978,VALID,166,VALID,1.54453,
2014-11-12, 03:48:04,VALID,916.82,VALID,0,VALID,97.7551,VALID,0,VALID,19.8978,VALID,137,VALID,1.32969,
2014-11-12, 03:49:04,VALID,916.83,VALID,0,VALID,97.7093,VALID,0,VALID,19.8978,VALID,153,VALID,2.59531,